Temperature
16 16 16 16 16 16 16 16 16 16 16 16 15 15 15 15 15 14 14 14 14 14 14 14 14 13 13 13 13 13 13 13 13 12 12 12 12 12
16 16 16 16 16 16 16 16 16 16 16 15 15 15 14 14 14 14 14 14 13 13 13 13 13 13 13 13 13 13 12 12 12 12 12 12 11 11
16 16 16 16 16 16 16 16 15 15 15 15 14 14 14 14 14 13 13 13 13 13 13 12 12 12 12 12 12 12 12 12 11 11 11 11 11 11
16 16 15 15 16 15 15 15 15 15 15 14 14 14 13 13 13 13 12 12 12 12 12 12 12 12 12 11 11 11 11 11 11 11 10 10 10 10
15 15 15 15 15 15 15 15 14 14 14 14 14 13 13 12 12 12 12 12 11 11 11 11 11 11 11 11 10 10 10 10 10 10 10 10 9 9
15 15 15 15 15 15 14 14 14 14 14 13 13 13 12 12 12 12 11 11 11 11 10 10 10 10 10 10 10 10 10 9 9 9 9 9 9 9
15 14 14 14 14 14 14 14 14 13 13 13 13 13 12 12 12 11 11 11 10 10 10 10 9 9 9 9 9 9 9 9 9 8 8 8 8 8
14 14 14 14 14 14 14 14 14 13 13 13 13 12 12 12 11 11 11 11 10 10 10 9 9 9 9 9 9 8 8 8 8 8 8 8 8 7
14 13 13 13 13 13 13 13 13 13 13 12 12 12 11 11 11 11 10 10 10 10 9 9 9 9 8 8 8 8 8 8 7 7 7 7 7 7
14 13 13 13 12 12 12 12 12 12 12 12 11 11 11 11 11 11 10 10 9 9 9 9 9 9 8 8 8 8 7 7 7 7 7 7 7 7
13 13 12 12 12 12 12 11 11 12 11 11 11 11 11 11 10 10 10 10 10 9 9 9 9 8 8 8 8 7 7 7 7 7 7 7 6 6
13 12 12 12 12 12 11 11 11 11 11 11 11 10 10 10 10 10 10 10 10 9 9 9 9 8 8 8 8 7 7 7 7 7 6 6 6 6
12 11 12 12 12 11 11 11 11 10 10 10 10 10 10 9 9 9 9 9 9 9 9 8 8 8 8 8 8 8 7 7 7 7 7 6 6 6
11 11 11 11 11 11 11 11 10 10 10 10 10 10 10 9 9 9 8 8 8 8 8 8 8 8 8 8 8 8 8 7 7 7 7 6 6 6
11 11 11 11 11 10 10 10 10 10 10 10 10 9 9 9 8 8 8 8 8 8 8 7 7 7 8 8 8 8 8 7 7 7 7 7 7 6
10 10 10 10 10 10 9 9 9 9 9 9 9 9 9 8 8 8 8 8 8 8 7 7 7 7 7 7 8 8 8 7 7 7 7 7 7 7
10 10 10 9 10 9 9 9 9 9 9 9 9 8 8 8 8 8 8 8 8 8 8 7 7 7 7 7 7 7 7 7 7 7 6 7 7 7
9 9 9 9 9 9 9 9 9 9 8 8 8 8 8 8 8 8 8 8 8 8 8 8 7 7 7 7 7 7 7 7 7 7 6 7 7 7
9 9 9 9 9 9 9 9 9 8 8 8 8 8 8 8 8 8 8 8 8 8 8 8 8 8 8 8 7 7 7 7 7 7 6 6 7 7
9 9 8 8 9 9 9 9 9 8 8 8 8 8 8 8 8 8 8 8 8 8 8 8 8 7 8 8 7 7 7 7 7 7 7 6 6 6
9 8 8 8 8 8 8 8 8 8 8 8 8 8 8 8 8 8 8 7 7 8 8 8 7 7 7 7 7 7 7 7 6 6 6 6 6 6
8 8 8 8 8 8 8 8 8 8 8 8 8 8 8 8 8 8 8 8 8 8 8 8 7 7 7 7 7 7 7 7 6 6 6 6 6 6
8 8 8 8 8 8 8 8 8 8 8 8 8 8 8 8 8 8 8 8 8 8 7 7 7 7 7 7 7 7 7 7 7 7 6 6 6 6
Wind_Speed
4 4 5 4 4 5 5 5 5 5 4 2 1 1 2 3 5 5 5 8 8 7 6 6 5 5 5 4 3 3 2 2 3 3 4 4 4 4
3 3 4 4 3 4 4 4 5 5 4 1 0 1 3 4 6 6 7 10 10 9 9 8 8 7 7 6 6 6 4 4 4 4 4 4 4 3
3 3 3 3 3 3 3 4 3 3 4 2 0 1 3 2 5 6 6 6 8 9 9 9 9 9 9 9 8 8 8 7 7 7 8 8 8 8
2 2 3 2 3 3 3 3 2 2 3 2 1 1 2 3 4 4 4 5 7 10 10 10 9 9 10 10 10 9 9 9 8 8 8 8 8 8
1 1 2 2 2 2 2 2 2 2 2 3 3 2 2 3 4 4 5 4 6 8 9 9 9 10 10 10 9 9 9 9 9 8 8 8 8 7
0 1 1 1 1 1 1 1 1 1 2 3 3 3 3 3 4 4 4 4 3 4 6 7 9 10 10 9 9 8 8 8 8 8 8 7 7 7
1 1 2 3 5 3 1 1 1 2 3 3 3 3 3 4 4 3 4 4 3 2 3 4 6 6 6 7 7 7 7 7 7 7 7 7 6 6
1 1 2 3 4 5 5 5 4 1 2 2 3 3 3 4 3 4 3 3 2 2 2 2 3 3 3 5 6 6 6 6 7 6 6 5 5 5
2 1 1 3 2 3 4 4 4 4 2 1 1 2 3 3 3 4 4 3 1 3 2 2 1 2 3 5 7 6 6 6 6 5 4 4 3 3
3 2 2 2 2 1 2 3 3 3 2 1 1 1 1 2 3 4 4 4 3 2 1 1 1 1 2 4 7 6 6 6 6 5 4 4 4 4
3 3 2 2 3 2 2 3 3 3 6 7 6 6 6 4 1 3 4 4 2 2 1 1 1 1 2 3 6 9 8 7 7 6 6 6 6 7
3 4 6 4 3 2 2 2 3 3 4 5 5 5 5 4 3 1 2 2 1 2 2 2 1 2 2 3 3 6 7 9 9 9 8 7 6 6
3 3 4 5 4 4 2 2 2 1 3 4 4 4 4 3 3 2 1 0 0 0 2 2 2 2 2 2 3 4 4 4 7 8 10 10 9 7
3 3 5 5 5 4 3 3 2 3 2 2 3 3 2 2 3 3 2 2 1 1 1 2 2 2 3 3 2 3 3 4 4 4 5 9 11 12
4 7 6 4 4 4 4 0 2 1 2 2 2 2 2 2 2 2 3 2 2 1 2 3 3 2 4 3 2 2 2 3 4 3 4 4 5 6
4 5 4 2 1 3 3 2 1 1 1 1 1 1 2 2 2 1 1 1 1 2 3 3 3 3 3 3 3 2 2 2 3 3 4 4 5 6
3 3 3 3 3 2 2 1 1 2 1 1 1 1 1 1 1 1 1 1 1 1 2 3 4 4 3 4 4 3 3 3 3 2 4 5 5 5
2 2 2 2 2 2 2 2 2 1 1 1 1 1 1 1 1 1 1 2 2 2 1 1 2 3 4 4 4 4 4 4 4 4 5 6 6 5
2 1 1 1 1 1 1 1 1 1 1 2 2 2 2 2 2 2 2 2 3 2 2 2 3 4 5 4 4 6 5 4 5 5 5 6 6 5
1 1 1 1 1 1 1 1 1 1 2 2 3 3 3 3 3 3 3 3 3 3 3 3 4 4 5 5 4 4 8 6 6 6 6 6 6 5
2 1 1 1 1 2 2 2 2 2 2 3 3 3 4 4 4 4 3 3 5 5 5 4 3 5 6 6 7 6 5 9 8 6 7 7 7 7
1 1 1 1 1 2 2 2 3 3 3 4 4 4 4 4 5 5 5 5 6 6 6 4 3 5 6 7 8 7 6 6 10 14 14 12 9 8
1 1 1 2 2 2 2 3 4 3 4 4 4 5 5 5 6 6 6 7 6 6 6 6 6 6 7 7 8 8 8 8 8 8 9 14 18 17
Wind_Direction
244 243 250 255 257 260 254 247 253 262 259 226 202 154 135 118 108 105 97 98 107 105 102 101 101 101 102 105 113 123 145 169 180 187 190 195 207 218
248 255 255 259 261 261 264 258 254 258 261 260 168 165 134 125 113 113 105 97 92 95 95 94 94 93 93 91 94 99 108 119 124 125 123 119 114 114
245 241 247 265 265 259 259 261 257 247 242 255 31 117 128 126 117 116 114 107 99 98 98 96 94 93 92 90 86 84 86 92 100 105 103 100 95 91
255 257 262 260 257 269 262 254 250 238 223 211 209 175 140 134 126 122 112 104 97 99 98 95 95 95 95 92 90 89 89 89 91 93 93 95 96 96
265 264 271 272 270 276 271 257 238 213 192 186 185 155 134 130 126 119 108 106 103 108 107 103 100 98 95 94 94 93 93 94 94 94 92 92 92 92
313 295 300 294 281 263 242 244 229 184 163 167 162 156 144 146 153 145 136 128 118 115 108 111 115 110 102 99 96 95 96 98 100 99 98 96 94 93
110 78 63 62 45 26 11 22 208 192 163 161 161 158 159 164 177 168 148 133 120 129 127 129 128 119 119 115 105 101 103 104 107 105 101 99 99 101
138 119 118 104 101 87 62 53 43 119 166 172 176 172 174 182 175 166 161 161 152 150 146 125 129 123 124 117 119 121 119 118 116 114 112 110 107 106
96 97 91 88 110 115 124 131 86 52 29 257 163 189 183 184 180 173 168 170 138 140 169 146 141 141 141 124 137 146 145 142 143 143 141 135 128 130
91 91 92 85 63 68 115 109 98 78 61 97 97 101 123 150 179 177 169 162 138 135 176 205 169 173 155 145 156 169 175 175 176 181 184 184 187 195
88 70 72 88 36 328 139 126 113 106 85 79 74 82 84 93 116 174 172 177 169 149 155 243 193 189 191 186 171 179 186 190 196 203 208 214 221 221
98 90 64 52 35 354 145 133 124 107 110 111 103 111 111 112 116 150 189 193 190 174 150 236 212 214 210 199 188 184 191 194 200 206 209 218 235 244
109 98 80 73 56 33 24 73 71 100 131 129 120 111 110 108 105 94 60 0 256 189 143 217 237 231 231 210 199 197 207 207 203 206 206 210 222 241
88 90 90 87 79 61 73 59 313 271 138 120 111 106 110 109 98 95 85 68 38 20 173 222 246 242 250 241 215 204 216 222 222 224 215 200 211 222
77 72 86 115 135 116 105 258 265 164 111 116 113 105 96 98 116 131 139 150 163 164 159 209 249 242 258 265 257 228 229 230 229 236 233 228 224 222
106 115 137 139 114 88 145 181 143 73 75 109 99 101 118 135 157 166 175 182 185 149 151 181 230 257 257 277 273 260 251 240 241 247 255 252 244 242
133 143 149 158 156 152 149 132 146 163 173 165 163 165 175 180 186 194 216 224 222 209 175 184 203 223 246 274 272 270 266 259 253 247 257 265 260 252
180 152 163 182 178 176 180 170 178 185 197 200 212 208 205 210 206 207 228 244 247 244 227 211 220 231 231 222 241 263 261 261 255 243 253 262 265 262
191 156 164 193 224 225 226 222 198 176 229 240 239 239 237 233 234 239 241 250 254 255 251 245 246 254 263 262 226 222 255 268 267 259 254 261 268 271
202 179 211 241 258 275 272 260 241 212 224 236 236 240 243 244 246 249 250 267 270 264 257 254 256 265 275 285 290 255 225 249 262 265 264 264 268 259
197 212 252 280 279 273 278 277 270 263 258 257 249 245 246 249 253 254 253 254 267 266 262 258 259 251 271 273 271 265 246 218 235 262 271 271 269 265
221 231 255 283 273 271 271 272 269 265 255 252 255 254 253 253 252 255 258 256 257 266 271 270 252 252 261 266 272 274 266 248 227 227 239 254 269 274
235 263 269 266 260 260 271 275 279 278 270 265 258 255 257 258 260 260 260 262 266 271 275 275 271 266 266 267 273 276 274 268 264 251 240 230 232 242
Height
1557 1558 1558 1558 1559 1559 1559 1559 1560 1559 1559 1559 1559 1559 1559 1558 1558 1558 1558 1558 1557 1557 1557 1556 1556 1556 1555 1555 1555 1554 1554 1554 1554 1554 1554 1554 1555 1555
1554 1554 1555 1555 1555 1555 1556 1556 1556 1556 1556 1556 1556 1556 1556 1555 1555 1555 1555 1555 1555 1554 1554 1554 1553 1553 1553 1552 1551 1551 1550 1550 1550 1550 1550 1550 1551 1551
1551 1552 1551 1551 1552 1552 1552 1552 1552 1552 1552 1553 1553 1553 1553 1553 1553 1553 1553 1553 1553 1552 1552 1552 1551 1551 1550 1550 1549 1548 1548 1547 1547 1547 1546 1547 1547 1547
1549 1549 1549 1549 1549 1549 1549 1549 1549 1549 1549 1549 1550 1550 1550 1550 1550 1551 1551 1551 1551 1550 1550 1550 1550 1549 1549 1548 1547 1547 1546 1546 1545 1545 1544 1544 1544 1545
1547 1546 1546 1546 1546 1546 1545 1546 1546 1546 1546 1547 1547 1548 1548 1548 1548 1549 1549 1549 1550 1549 1549 1549 1548 1548 1547 1547 1546 1545 1545 1544 1544 1543 1543 1543 1543 1543
1544 1544 1544 1543 1543 1543 1543 1543 1543 1544 1544 1545 1545 1546 1546 1546 1547 1548 1548 1548 1549 1549 1548 1548 1547 1547 1546 1546 1545 1544 1544 1543 1542 1542 1542 1542 1542 1542
1542 1542 1541 1541 1541 1541 1541 1541 1541 1542 1542 1543 1543 1544 1544 1545 1546 1546 1547 1547 1547 1548 1548 1548 1547 1546 1545 1544 1544 1543 1543 1542 1541 1541 1541 1541 1541 1541
1541 1540 1539 1539 1539 1539 1539 1539 1540 1540 1540 1541 1542 1542 1542 1543 1544 1544 1545 1546 1546 1547 1547 1547 1547 1546 1546 1544 1543 1542 1542 1541 1540 1540 1540 1540 1540 1540
1539 1539 1539 1538 1538 1537 1537 1538 1538 1538 1539 1540 1540 1540 1541 1541 1542 1542 1543 1544 1544 1545 1546 1546 1546 1545 1545 1544 1543 1542 1541 1540 1540 1539 1539 1539 1539 1539
1538 1538 1537 1537 1536 1537 1537 1537 1537 1537 1538 1538 1538 1539 1539 1539 1540 1541 1541 1542 1542 1543 1544 1545 1544 1544 1544 1543 1542 1541 1540 1540 1539 1539 1539 1539 1539 1539
1537 1537 1536 1536 1536 1536 1536 1536 1537 1537 1537 1537 1537 1537 1537 1538 1538 1540 1540 1540 1541 1541 1542 1542 1542 1542 1542 1542 1541 1540 1539 1539 1538 1538 1538 1538 1538 1538
1536 1536 1535 1535 1535 1536 1536 1536 1537 1537 1537 1537 1537 1536 1536 1536 1537 1537 1538 1538 1539 1539 1539 1540 1540 1540 1540 1540 1540 1539 1538 1538 1537 1537 1537 1537 1537 1537
1536 1536 1535 1535 1535 1535 1535 1536 1536 1536 1536 1536 1536 1536 1536 1536 1536 1536 1536 1536 1537 1537 1537 1537 1538 1538 1539 1538 1538 1538 1538 1537 1536 1536 1535 1535 1535 1535
1536 1536 1535 1535 1535 1535 1535 1535 1535 1536 1537 1536 1536 1536 1536 1535 1535 1535 1534 1534 1534 1535 1535 1535 1536 1536 1537 1536 1536 1536 1536 1535 1535 1535 1534 1534 1533 1533
1535 1535 1535 1535 1534 1535 1534 1534 1535 1536 1536 1536 1535 1535 1535 1534 1534 1534 1534 1534 1534 1534 1534 1533 1534 1534 1535 1535 1534 1534 1533 1533 1533 1533 1532 1532 1532 1531
1534 1534 1534 1534 1534 1534 1534 1534 1535 1535 1535 1535 1535 1535 1534 1534 1534 1534 1534 1534 1534 1534 1533 1532 1532 1533 1533 1533 1533 1532 1531 1531 1531 1531 1530 1530 1529 1529
1534 1534 1534 1534 1534 1534 1534 1534 1534 1534 1534 1534 1534 1534 1534 1534 1534 1534 1534 1534 1533 1533 1532 1532 1531 1531 1531 1531 1531 1530 1529 1529 1529 1528 1528 1527 1527 1526
1533 1533 1533 1533 1533 1533 1533 1533 1533 1533 1533 1533 1533 1533 1533 1533 1533 1533 1533 1533 1532 1532 1531 1531 1531 1530 1530 1529 1528 1528 1527 1527 1526 1526 1525 1524 1524 1523
1532 1533 1533 1533 1533 1533 1533 1532 1532 1532 1532 1532 1532 1532 1532 1532 1532 1532 1532 1531 1531 1530 1530 1529 1529 1528 1528 1527 1526 1525 1525 1524 1524 1523 1522 1522 1521 1520
1531 1532 1532 1532 1532 1532 1532 1531 1531 1531 1531 1531 1531 1531 1530 1530 1530 1530 1530 1530 1529 1528 1528 1527 1527 1526 1525 1525 1524 1523 1522 1521 1521 1520 1519 1519 1518 1517
1530 1531 1531 1531 1531 1531 1530 1530 1530 1529 1529 1529 1529 1529 1529 1528 1528 1528 1527 1527 1526 1526 1525 1525 1524 1523 1522 1521 1521 1519 1519 1518 1517 1516 1516 1515 1514 1513
1529 1530 1529 1529 1529 1529 1529 1528 1528 1527 1527 1527 1527 1526 1526 1526 1526 1525 1525 1524 1523 1523 1522 1522 1521 1520 1519 1518 1517 1516 1515 1514 1513 1511 1511 1511 1510 1508
1528 1528 1528 1528 1528 1527 1527 1526 1526 1526 1525 1525 1524 1523 1523 1523 1523 1522 1522 1521 1520 1519 1518 1518 1517 1516 1515 1514 1513 1512 1511 1510 1509 1508 1507 1505 1505 1504